CTV446 WIII-WALL

Flight info

Callsign CTV446
Flight time 1h 43m
Altitude 35000
Route EGUKO T9 SILJA
Aircraft A320/M-SDE3FGHIRWY/LB1

Departure

Time 2026-05-05 02:43
Airport Soekarno-Hatta International Airport (WIII)

Arrival

Time 2026-05-05 04:27
Airport Sultan Aji Muhammad Sulaiman Sepinggan International Airport (WALL)
Time Latitude Longitude Altitude Speed Heading
2026-05-05 02:43 -6.26757 106.54180 8659 ft 251 kts 113°
2026-05-05 02:43 -6.27131 106.55882 9317 ft 252 kts 86°
2026-05-05 02:44 -6.26686 106.57582 9936 ft 256 kts 60°
2026-05-05 02:44 -6.25668 106.59058 10528 ft 258 kts 54°
2026-05-05 02:44 -6.24606 106.60525 11151 ft 260 kts 54°
2026-05-05 02:44 -6.23518 106.62056 11419 ft 280 kts 56°
2026-05-05 02:45 -6.22357 106.63731 11552 ft 303 kts 56°
2026-05-05 02:45 -6.21115 106.65542 11677 ft 326 kts 56°
2026-05-05 02:45 -6.19789 106.67475 11875 ft 343 kts 56°
2026-05-05 02:45 -6.18419 106.69467 12398 ft 349 kts 56°
2026-05-05 02:46 -6.17028 106.71485 13013 ft 352 kts 56°
2026-05-05 02:46 -6.15630 106.73511 13621 ft 354 kts 56°
2026-05-05 02:46 -6.14218 106.75555 14150 ft 357 kts 56°
2026-05-05 02:46 -6.12795 106.77616 14660 ft 360 kts 56°
2026-05-05 02:47 -6.11360 106.79691 15167 ft 363 kts 56°
2026-05-05 02:47 -6.10400 106.81079 15501 ft 365 kts 56°
2026-05-05 02:47 -6.08447 106.83902 16164 ft 370 kts 56°
2026-05-05 02:47 -6.07473 106.85312 16486 ft 372 kts 56°
2026-05-05 02:48 -6.05504 106.88155 17147 ft 376 kts 56°
2026-05-05 02:48 -6.04007 106.90318 17620 ft 379 kts 56°
2026-05-05 02:48 -6.02497 106.92504 18100 ft 382 kts 56°
2026-05-05 02:48 -6.00977 106.94703 18507 ft 385 kts 56°
2026-05-05 02:49 -5.99444 106.96919 18903 ft 387 kts 56°
2026-05-05 02:49 -5.97904 106.99147 19306 ft 390 kts 56°
2026-05-05 02:49 -5.96354 107.01396 19711 ft 392 kts 56°
2026-05-05 02:49 -5.94796 107.03653 20104 ft 394 kts 56°
2026-05-05 02:50 -5.93225 107.05924 20488 ft 397 kts 56°
2026-05-05 02:50 -5.91642 107.08208 20859 ft 399 kts 56°
2026-05-05 02:50 -5.90048 107.10505 21234 ft 402 kts 56°
2026-05-05 02:50 -5.88445 107.12816 21611 ft 404 kts 56°
2026-05-05 02:51 -5.86835 107.15138 21988 ft 407 kts 56°
2026-05-05 02:51 -5.85218 107.17477 22352 ft 409 kts 56°
2026-05-05 02:51 -5.83593 107.19831 22701 ft 411 kts 56°
2026-05-05 02:51 -5.81957 107.22195 23055 ft 413 kts 56°
2026-05-05 02:52 -5.80311 107.24572 23418 ft 415 kts 56°
2026-05-05 02:52 -5.78659 107.26956 23727 ft 417 kts 56°
2026-05-05 02:52 -5.76996 107.29356 24007 ft 419 kts 56°
2026-05-05 02:52 -5.75329 107.31761 24304 ft 421 kts 56°
2026-05-05 02:53 -5.73652 107.34175 24596 ft 422 kts 56°
2026-05-05 02:53 -5.72040 107.36497 24875 ft 424 kts 56°
2026-05-05 02:53 -5.70353 107.38934 25153 ft 426 kts 56°
2026-05-05 02:53 -5.68662 107.41384 25441 ft 427 kts 56°
2026-05-05 02:54 -5.66969 107.43839 25721 ft 429 kts 56°
2026-05-05 02:54 -5.65262 107.46311 26001 ft 431 kts 56°
2026-05-05 02:54 -5.63547 107.48783 26270 ft 433 kts 56°
2026-05-05 02:54 -5.61820 107.51265 26544 ft 434 kts 56°
2026-05-05 02:55 -5.60090 107.53753 26805 ft 436 kts 56°
2026-05-05 02:55 -5.58352 107.56258 27069 ft 437 kts 56°
2026-05-05 02:55 -5.56611 107.58767 27330 ft 439 kts 56°
2026-05-05 02:55 -5.54858 107.61293 27595 ft 441 kts 56°
2026-05-05 02:56 -5.53103 107.63823 27857 ft 442 kts 56°
2026-05-05 02:56 -5.51362 107.66330 28115 ft 444 kts 56°
2026-05-05 02:56 -5.49595 107.68877 28373 ft 446 kts 56°
2026-05-05 02:56 -5.47823 107.71433 28626 ft 447 kts 56°
2026-05-05 02:57 -5.46039 107.74004 28871 ft 449 kts 56°
2026-05-05 02:57 -5.44251 107.76575 29105 ft 450 kts 56°
2026-05-05 02:57 -5.42453 107.79157 29343 ft 452 kts 56°
2026-05-05 02:57 -5.40650 107.81750 29570 ft 453 kts 56°
2026-05-05 02:58 -5.38843 107.84350 29800 ft 455 kts 56°
2026-05-05 02:58 -5.37120 107.86830 30000 ft 456 kts 56°
2026-05-05 02:58 -5.35303 107.89445 30188 ft 457 kts 56°
2026-05-05 02:58 -5.33502 107.92038 30382 ft 459 kts 56°
2026-05-05 02:59 -5.31676 107.94670 30563 ft 460 kts 56°
2026-05-05 02:59 -5.29849 107.97305 30777 ft 460 kts 56°
2026-05-05 02:59 -5.28022 107.99939 31052 ft 459 kts 56°
2026-05-05 02:59 -5.26195 108.02568 31324 ft 458 kts 55°
2026-05-05 03:00 -5.24373 108.05188 31594 ft 457 kts 55°
2026-05-05 03:00 -5.22556 108.07801 31864 ft 456 kts 55°
2026-05-05 03:00 -5.20744 108.10412 32153 ft 456 kts 55°
2026-05-05 03:00 -5.18933 108.13019 32427 ft 455 kts 55°
2026-05-05 03:01 -5.17128 108.15612 32692 ft 454 kts 55°
2026-05-05 03:01 -5.15316 108.18211 32957 ft 454 kts 55°
2026-05-05 03:01 -5.13507 108.20804 33227 ft 453 kts 55°
2026-05-05 03:01 -5.11700 108.23397 33499 ft 452 kts 55°
2026-05-05 03:02 -5.09898 108.25983 33777 ft 452 kts 55°
2026-05-05 03:02 -5.08104 108.28561 34039 ft 451 kts 55°
2026-05-05 03:02 -5.06307 108.31143 34275 ft 450 kts 55°
2026-05-05 03:02 -5.04541 108.33684 34472 ft 450 kts 55°
2026-05-05 03:03 -5.02724 108.36296 34671 ft 451 kts 55°
2026-05-05 03:03 -5.00931 108.38875 34856 ft 451 kts 55°
2026-05-05 03:03 -4.99141 108.41446 34921 ft 449 kts 55°
2026-05-05 03:04 -4.95600 108.46528 34932 ft 447 kts 55°
2026-05-05 03:04 -4.92038 108.51640 34932 ft 447 kts 55°
2026-05-05 03:05 -4.88473 108.56757 34928 ft 447 kts 55°
2026-05-05 03:05 -4.84916 108.61870 34929 ft 447 kts 55°
2026-05-05 03:06 -4.81350 108.66980 34927 ft 447 kts 55°
2026-05-05 03:06 -4.77809 108.72057 34926 ft 447 kts 55°
2026-05-05 03:07 -4.74231 108.77179 34929 ft 446 kts 55°
2026-05-05 03:07 -4.70836 108.82345 34923 ft 446 kts 63°
2026-05-05 03:08 -4.68173 108.87981 34912 ft 447 kts 64°
2026-05-05 03:08 -4.65483 108.93605 34905 ft 447 kts 64°
2026-05-05 03:09 -4.62788 108.99238 34909 ft 448 kts 64°
2026-05-05 03:09 -4.60107 109.04873 34909 ft 448 kts 64°
2026-05-05 03:10 -4.57451 109.10482 34911 ft 448 kts 64°
2026-05-05 03:10 -4.54772 109.16121 34911 ft 448 kts 64°
2026-05-05 03:11 -4.52082 109.21746 34915 ft 447 kts 64°
2026-05-05 03:11 -4.49401 109.27370 34917 ft 447 kts 64°
2026-05-05 03:12 -4.46723 109.32994 34922 ft 447 kts 64°
2026-05-05 03:12 -4.44052 109.38621 34923 ft 447 kts 64°
2026-05-05 03:13 -4.41377 109.44245 34922 ft 447 kts 64°
2026-05-05 03:13 -4.38690 109.49868 34922 ft 447 kts 64°
2026-05-05 03:14 -4.36009 109.55482 34916 ft 447 kts 64°
2026-05-05 03:14 -4.33336 109.61099 34918 ft 447 kts 64°
2026-05-05 03:15 -4.30674 109.66688 34914 ft 447 kts 65°
2026-05-05 03:15 -4.27992 109.72304 34914 ft 447 kts 64°
2026-05-05 03:16 -4.25740 109.77014 34917 ft 447 kts 64°
2026-05-05 03:16 -4.23072 109.82606 34918 ft 447 kts 64°
2026-05-05 03:17 -4.20386 109.88232 34918 ft 448 kts 64°
2026-05-05 03:17 -4.17693 109.93865 34920 ft 448 kts 64°
2026-05-05 03:18 -4.14996 109.99497 34916 ft 448 kts 64°
2026-05-05 03:18 -4.12310 110.05135 34918 ft 448 kts 64°
2026-05-05 03:19 -4.08289 110.13559 34923 ft 449 kts 64°
2026-05-05 03:19 -4.05590 110.19190 34931 ft 448 kts 64°
2026-05-05 03:20 -4.02892 110.24821 34929 ft 448 kts 64°
2026-05-05 03:20 -4.00203 110.30450 34928 ft 448 kts 64°
2026-05-05 03:21 -3.97520 110.36075 34927 ft 448 kts 64°
2026-05-05 03:21 -3.94830 110.41702 34926 ft 448 kts 64°
2026-05-05 03:22 -3.92133 110.47324 34920 ft 448 kts 64°
2026-05-05 03:22 -3.89445 110.52948 34918 ft 448 kts 64°
2026-05-05 03:23 -3.86757 110.58574 34917 ft 448 kts 64°
2026-05-05 03:23 -3.84061 110.64196 34917 ft 448 kts 64°
2026-05-05 03:24 -3.81369 110.69820 34916 ft 448 kts 64°
2026-05-05 03:24 -3.78669 110.75443 34916 ft 448 kts 64°
2026-05-05 03:25 -3.75975 110.81061 34916 ft 448 kts 64°
2026-05-05 03:25 -3.73281 110.86678 34925 ft 447 kts 64°
2026-05-05 03:26 -3.70599 110.92283 34928 ft 446 kts 64°
2026-05-05 03:26 -3.67934 110.97842 34925 ft 445 kts 64°
2026-05-05 03:27 -3.65264 111.03430 34919 ft 445 kts 64°
2026-05-05 03:27 -3.62591 111.09009 34915 ft 444 kts 64°
2026-05-05 03:28 -3.59907 111.14580 34914 ft 444 kts 64°
2026-05-05 03:28 -3.57233 111.20153 34910 ft 444 kts 64°
2026-05-05 03:29 -3.54566 111.25737 34905 ft 445 kts 64°
2026-05-05 03:29 -3.51885 111.31314 34903 ft 444 kts 64°
2026-05-05 03:30 -3.49194 111.36890 34902 ft 444 kts 64°
2026-05-05 03:30 -3.46515 111.42462 34902 ft 444 kts 64°
2026-05-05 03:31 -3.43848 111.48032 34904 ft 444 kts 64°
2026-05-05 03:31 -3.41180 111.53606 34903 ft 444 kts 64°
2026-05-05 03:32 -3.38507 111.59177 34898 ft 444 kts 64°
2026-05-05 03:32 -3.35826 111.64749 34898 ft 444 kts 64°
2026-05-05 03:33 -3.33150 111.70309 34900 ft 444 kts 64°
2026-05-05 03:33 -3.30469 111.75873 34898 ft 444 kts 64°
2026-05-05 03:34 -3.27797 111.81442 34894 ft 443 kts 64°
2026-05-05 03:34 -3.25148 111.86965 34896 ft 443 kts 64°
2026-05-05 03:35 -3.22487 111.92514 34898 ft 442 kts 64°
2026-05-05 03:35 -3.19817 111.98055 34896 ft 442 kts 64°
2026-05-05 03:36 -3.17149 112.03601 34892 ft 442 kts 64°
2026-05-05 03:36 -3.14478 112.09139 34887 ft 441 kts 64°
2026-05-05 03:37 -3.11815 112.14674 34882 ft 441 kts 64°
2026-05-05 03:37 -3.09169 112.20177 34881 ft 441 kts 64°
2026-05-05 03:38 -3.06485 112.25738 34880 ft 442 kts 64°
2026-05-05 03:38 -3.03835 112.31256 34880 ft 442 kts 65°
2026-05-05 03:39 -3.01463 112.36912 34880 ft 442 kts 69°
2026-05-05 03:39 -2.99296 112.42674 34881 ft 442 kts 69°
2026-05-05 03:40 -2.97112 112.48400 34881 ft 442 kts 68°
2026-05-05 03:40 -2.94846 112.54150 34879 ft 443 kts 68°
2026-05-05 03:41 -2.92573 112.59846 34879 ft 443 kts 68°
2026-05-05 03:41 -2.90297 112.65588 34880 ft 443 kts 68°
2026-05-05 03:42 -2.88042 112.71299 34882 ft 443 kts 68°
2026-05-05 03:42 -2.85775 112.77050 34886 ft 443 kts 68°
2026-05-05 03:43 -2.83518 112.82770 34888 ft 444 kts 68°
2026-05-05 03:43 -2.81235 112.88537 34883 ft 444 kts 68°
2026-05-05 03:44 -2.78969 112.94258 34886 ft 445 kts 69°
2026-05-05 03:44 -2.76686 113.00019 34882 ft 445 kts 68°
2026-05-05 03:45 -2.74400 113.05793 34885 ft 445 kts 69°
2026-05-05 03:45 -2.72131 113.11519 34896 ft 445 kts 68°
2026-05-05 03:46 -2.69849 113.17286 34901 ft 445 kts 68°
2026-05-05 03:46 -2.67567 113.23048 34903 ft 444 kts 68°
2026-05-05 03:47 -2.65283 113.28792 34903 ft 444 kts 68°
2026-05-05 03:47 -2.63022 113.34504 34902 ft 444 kts 68°
2026-05-05 03:48 -2.60683 113.40232 34899 ft 444 kts 63°
2026-05-05 03:48 -2.57417 113.45471 34900 ft 444 kts 57°
2026-05-05 03:49 -2.54024 113.50633 34903 ft 443 kts 57°
2026-05-05 03:49 -2.50656 113.55757 34901 ft 443 kts 57°
2026-05-05 03:50 -2.47270 113.60916 34901 ft 443 kts 57°
2026-05-05 03:50 -2.43872 113.66076 34896 ft 443 kts 57°
2026-05-05 03:51 -2.40495 113.71221 34879 ft 444 kts 57°
2026-05-05 03:51 -2.37101 113.76394 34884 ft 445 kts 57°
2026-05-05 03:52 -2.33697 113.81566 34884 ft 445 kts 57°
2026-05-05 03:52 -2.30287 113.86746 34895 ft 446 kts 57°
2026-05-05 03:53 -2.26901 113.91897 34897 ft 446 kts 57°
2026-05-05 03:53 -2.23826 113.97274 34899 ft 446 kts 66°
2026-05-05 03:54 -2.21340 114.02952 34899 ft 446 kts 66°
2026-05-05 03:54 -2.18850 114.08631 34904 ft 446 kts 67°
2026-05-05 03:55 -2.16358 114.14301 34909 ft 446 kts 67°
2026-05-05 03:55 -2.13868 114.19980 34912 ft 446 kts 67°
2026-05-05 03:56 -2.11383 114.25646 34908 ft 445 kts 67°
2026-05-05 03:56 -2.08903 114.31311 34902 ft 445 kts 67°
2026-05-05 03:57 -2.06406 114.36972 34884 ft 446 kts 66°
2026-05-05 03:57 -2.03903 114.42649 34884 ft 446 kts 66°
2026-05-05 03:58 -2.01412 114.48328 34887 ft 446 kts 66°
2026-05-05 03:58 -1.98937 114.53974 34884 ft 446 kts 66°
2026-05-05 03:59 -1.96444 114.59650 34887 ft 446 kts 66°
2026-05-05 03:59 -1.93944 114.65323 34891 ft 446 kts 66°
2026-05-05 04:00 -1.91444 114.70999 34901 ft 446 kts 66°
2026-05-05 04:00 -1.88942 114.76682 34900 ft 446 kts 66°
2026-05-05 04:01 -1.86447 114.82362 34891 ft 446 kts 66°
2026-05-05 04:01 -1.83955 114.88049 34901 ft 446 kts 66°
2026-05-05 04:02 -1.81461 114.93735 34900 ft 446 kts 66°
2026-05-05 04:02 -1.78977 114.99381 34901 ft 446 kts 66°
2026-05-05 04:03 -1.76473 115.05069 34889 ft 447 kts 66°
2026-05-05 04:03 -1.73966 115.10751 34900 ft 447 kts 66°
2026-05-05 04:04 -1.71459 115.16441 34888 ft 448 kts 67°
2026-05-05 04:04 -1.69373 115.21191 34676 ft 451 kts 67°
2026-05-05 04:05 -1.68129 115.24106 33490 ft 463 kts 69°
2026-05-05 04:05 -1.66984 115.27130 32611 ft 466 kts 71°
2026-05-05 04:05 -1.65930 115.30186 31953 ft 463 kts 72°
2026-05-05 04:05 -1.64929 115.33235 31367 ft 459 kts 72°
2026-05-05 04:06 -1.63946 115.36256 30794 ft 455 kts 72°
2026-05-05 04:06 -1.62957 115.39244 30226 ft 451 kts 72°
2026-05-05 04:06 -1.61952 115.42202 29623 ft 448 kts 71°
2026-05-05 04:06 -1.60935 115.45129 28999 ft 444 kts 71°
2026-05-05 04:07 -1.59919 115.48024 28395 ft 440 kts 71°
2026-05-05 04:07 -1.58909 115.50901 27818 ft 436 kts 71°
2026-05-05 04:07 -1.57913 115.53745 27246 ft 432 kts 71°
2026-05-05 04:07 -1.56924 115.56573 26690 ft 429 kts 71°
2026-05-05 04:08 -1.55943 115.59376 26143 ft 425 kts 71°
2026-05-05 04:08 -1.54970 115.62161 25573 ft 423 kts 71°
2026-05-05 04:08 -1.54008 115.64920 25037 ft 419 kts 71°
2026-05-05 04:08 -1.53070 115.67625 24537 ft 416 kts 71°
2026-05-05 04:09 -1.52132 115.70341 24045 ft 412 kts 71°
2026-05-05 04:09 -1.51200 115.73036 23545 ft 408 kts 71°
2026-05-05 04:09 -1.50274 115.75709 22987 ft 405 kts 71°
2026-05-05 04:09 -1.49344 115.78391 22476 ft 401 kts 71°
2026-05-05 04:10 -1.48442 115.80981 21991 ft 397 kts 71°
2026-05-05 04:10 -1.47536 115.83580 21488 ft 394 kts 71°
2026-05-05 04:10 -1.46640 115.86151 20995 ft 391 kts 71°
2026-05-05 04:10 -1.45750 115.88711 20494 ft 389 kts 71°
2026-05-05 04:11 -1.44864 115.91255 19996 ft 387 kts 71°
2026-05-05 04:11 -1.43983 115.93784 19504 ft 385 kts 71°
2026-05-05 04:11 -1.43103 115.96314 19013 ft 384 kts 71°
2026-05-05 04:11 -1.42228 115.98828 18535 ft 383 kts 71°
2026-05-05 04:12 -1.41359 116.01333 18067 ft 381 kts 71°
2026-05-05 04:12 -1.40497 116.03813 17615 ft 377 kts 71°
2026-05-05 04:12 -1.39636 116.06285 17167 ft 374 kts 71°
2026-05-05 04:12 -1.38783 116.08737 16742 ft 371 kts 71°
2026-05-05 04:13 -1.37932 116.11182 16211 ft 371 kts 71°
2026-05-05 04:13 -1.37088 116.13606 15803 ft 368 kts 71°
2026-05-05 04:13 -1.36262 116.16010 15408 ft 365 kts 71°
2026-05-05 04:13 -1.35444 116.18410 14953 ft 363 kts 71°
2026-05-05 04:14 -1.34635 116.20792 14513 ft 361 kts 71°
2026-05-05 04:14 -1.33832 116.23160 14085 ft 359 kts 71°
2026-05-05 04:14 -1.33030 116.25517 13655 ft 357 kts 71°
2026-05-05 04:14 -1.32232 116.27859 13199 ft 355 kts 71°
2026-05-05 04:15 -1.31427 116.30180 12741 ft 352 kts 71°
2026-05-05 04:15 -1.30611 116.32478 12288 ft 350 kts 71°
2026-05-05 04:15 -1.29793 116.34757 11836 ft 347 kts 71°
2026-05-05 04:15 -1.28981 116.37019 11387 ft 345 kts 71°
2026-05-05 04:16 -1.28186 116.39274 10942 ft 342 kts 73°
2026-05-05 04:16 -1.27924 116.41567 10621 ft 334 kts 99°
2026-05-05 04:16 -1.28685 116.43688 10497 ft 320 kts 124°
2026-05-05 04:16 -1.30226 116.45201 10384 ft 307 kts 150°
2026-05-05 04:17 -1.32121 116.46120 10187 ft 300 kts 156°
2026-05-05 04:17 -1.34020 116.46972 9878 ft 297 kts 156°
2026-05-05 04:17 -1.35901 116.47809 9547 ft 296 kts 156°
2026-05-05 04:17 -1.37772 116.48640 9135 ft 292 kts 156°
2026-05-05 04:18 -1.39625 116.49464 8471 ft 290 kts 156°
2026-05-05 04:18 -1.41472 116.50261 7832 ft 288 kts 157°
2026-05-05 04:18 -1.43323 116.51040 7416 ft 288 kts 158°
2026-05-05 04:18 -1.45169 116.51811 7040 ft 286 kts 158°
2026-05-05 04:19 -1.46994 116.52572 6722 ft 283 kts 158°
2026-05-05 04:19 -1.48801 116.53338 6433 ft 280 kts 155°
2026-05-05 04:19 -1.50323 116.54516 6129 ft 279 kts 127°
2026-05-05 04:19 -1.51099 116.56272 5859 ft 278 kts 98°
2026-05-05 04:20 -1.50952 116.58160 5671 ft 280 kts 72°
2026-05-05 04:20 -1.50276 116.59988 5460 ft 281 kts 69°
2026-05-05 04:20 -1.49575 116.61805 5251 ft 280 kts 69°
2026-05-05 04:20 -1.48872 116.63621 5043 ft 279 kts 69°
2026-05-05 04:21 -1.48171 116.65424 4838 ft 277 kts 67°
2026-05-05 04:21 -1.47167 116.66999 4717 ft 263 kts 45°
2026-05-05 04:21 -1.45726 116.68033 4599 ft 250 kts 23°
2026-05-05 04:21 -1.44114 116.68578 4468 ft 240 kts 17°
2026-05-05 04:22 -1.42531 116.69075 4345 ft 237 kts 17°
2026-05-05 04:22 -1.40960 116.69568 4223 ft 236 kts 17°
2026-05-05 04:22 -1.39391 116.70061 4101 ft 236 kts 17°
2026-05-05 04:22 -1.37827 116.70553 3985 ft 235 kts 17°
2026-05-05 04:23 -1.36292 116.71060 3817 ft 235 kts 23°
2026-05-05 04:23 -1.34979 116.72004 3552 ft 234 kts 50°
2026-05-05 04:23 -1.34144 116.73378 3285 ft 231 kts 63°
2026-05-05 04:23 -1.33430 116.74755 3212 ft 217 kts 63°
2026-05-05 04:24 -1.32741 116.76083 2817 ft 215 kts 63°
2026-05-05 04:24 -1.32050 116.77410 2415 ft 214 kts 63°
2026-05-05 04:24 -1.31372 116.78716 2089 ft 209 kts 63°
2026-05-05 04:25 -1.30236 116.81284 1532 ft 191 kts 68°
2026-05-05 04:25 -1.29748 116.82461 1311 ft 174 kts 68°
2026-05-05 04:25 -1.29305 116.83525 1062 ft 159 kts 68°
2026-05-05 04:25 -1.28890 116.84519 868 ft 151 kts 68°
2026-05-05 04:26 -1.28490 116.85476 669 ft 148 kts 68°
2026-05-05 04:26 -1.28096 116.86416 469 ft 146 kts 67°
2026-05-05 04:26 -1.27702 116.87343 273 ft 144 kts 67°
2026-05-05 04:26 -1.27342 116.88257 69 ft 137 kts 69°
2026-05-05 04:27 -1.27020 116.89021 21 ft 84 kts 66°
2026-05-05 04:27 -1.26904 116.89291 21 ft 13 kts 68°
2026-05-05 04:27 -1.26862 116.89392 23 ft 18 kts 68°
2026-05-05 04:27 -1.26806 116.89524 23 ft 23 kts 68°
2026-05-05 04:28 -1.26731 116.89669 23 ft 22 kts 30°
2026-05-05 04:28 -1.26600 116.89654 21 ft 17 kts
2026-05-05 04:28 -1.26532 116.89733 21 ft 14 kts 66°
2026-05-05 04:28 -1.26465 116.89770 21 ft 10 kts 357°
2026-05-05 04:29 -1.26417 116.89800 21 ft 8 kts 57°
2026-05-05 04:29 -1.26397 116.89845 22 ft 6 kts 66°
2026-05-05 04:29 -1.26381 116.89882 21 ft 5 kts 66°
2026-05-05 04:29 -1.26367 116.89911 21 ft 4 kts 58°
2026-05-05 04:30 -1.26351 116.89915 21 ft 1 kts 340°
2026-05-05 04:30 -1.26340 116.89906 21 ft 3 kts 323°
2026-05-05 04:30 -1.26323 116.89896 22 ft 2 kts 332°
2026-05-05 04:30 -1.26311 116.89892 21 ft 1 kts 339°
2026-05-05 04:31 -1.26306 116.89889 21 ft 0 kts 339°
2026-05-05 04:31 -1.26304 116.89889 21 ft 1 kts 338°
2026-05-05 04:31 -1.26301 116.89888 23 ft 0 kts 338°
2026-05-05 04:31 -1.26299 116.89887 23 ft 0 kts 338°
2026-05-05 04:32 -1.26298 116.89886 23 ft 0 kts 335°